Flag for Barbados Weather past 2 weeks in Bridgetown, Barbados

Now
81 °F

Partly sunny.


Feels Like: 85 °F
Forecast: 79 / 86 °F
Wind: 7 mph from Northeast

Location: Grantley Adams

Current Time: Oct 20, 2014 at 7:59:51 AM

Latest Report: Oct 20, 2014 at 7:00 AM


Visibility: N/A

Pressure: 29.92 "Hg

Humidity: 79%

Dew point: 73 °F

Location of BridgetownLocation

Historic Weather in Bridgetown — Graph

°F

Bridgetown temperature yesterday

Maximum temperature yesterday: 88 °F (at 11:00 AM)
Minimum temperature yesterday: 73 °F (at 1:00 AM)
Average temperature yesterday: 80 °F

Past Weeks' High & Low Weather Summary

 TemperatureHumidityPressure
High88 °F (Oct 5, 1:00 PM)100% (Oct 7, 5:00 AM)30.01 "Hg (Oct 7, 5:00 AM)
Low73 °F (Oct 19, 1:00 AM)62% (Oct 19, 9:00 AM)29.77 "Hg (Oct 9, 4:00 PM)
Average82 °F81%29.90 "Hg
* Reported Oct 5 7:00 AM — Oct 20 7:00 AM, Bridgetown, Weather by CustomWeather, © 2014

Note: Actual official high and low records may vary slightly from our data, if they occured in-between our weather recording intervals... More about our weather records

Advertising

Bridgetown weather history for previous 24 hours

 ConditionsComfort  
Time TempWeatherWind HumidityBarometerVisibility
7:00 AM
Oct 20
81 °FPartly sunny.7 mph79%29.92 "HgN/A
6:00 AM77 °FPartly sunny.6 mph89%29.92 "HgN/A
5:00 AM77 °FPassing clouds.7 mph89%29.89 "HgN/A
4:00 AM77 °FPassing clouds.7 mph89%29.89 "HgN/A
3:00 AM77 °FPassing clouds.7 mph89%29.89 "HgN/A
2:00 AM77 °FPassing clouds.6 mph89%29.89 "HgN/A
1:00 AM75 °FClear.6 mph89%29.89 "Hg10 mi
11:00 PM
Oct 19
75 °FClear.6 mph94%29.92 "Hg10 mi
10:00 PM77 °FClear.6 mph89%29.92 "Hg10 mi
9:00 PM77 °FPassing clouds.6 mph89%29.92 "HgN/A
8:00 PM79 °FPassing clouds.3 mph84%29.92 "HgN/A
7:00 PM81 °FPartly cloudy.3 mph79%29.89 "HgN/A
6:00 PM81 °FPartly cloudy.5 mph79%29.89 "HgN/A
5:00 PM84 °FPartly sunny.7 mph70%29.86 "HgN/A
4:00 PM86 °FPartly sunny.8 mph66%29.86 "HgN/A
3:00 PM86 °FPartly sunny.8 mph66%29.86 "HgN/A
2:00 PM86 °FPartly sunny.9 mph70%29.89 "HgN/A
1:00 PM86 °FPartly sunny.8 mph66%29.89 "HgN/A
12:00 PM86 °FPassing clouds.9 mph66%29.92 "HgN/A
11:00 AM88 °FScattered clouds.9 mph62%29.95 "HgN/A
10:00 AM86 °FPartly sunny.9 mph62%29.95 "HgN/A
9:00 AM86 °FPartly sunny.8 mph62%29.95 "HgN/A
8:00 AM82 °FPartly sunny.7 mph70%29.95 "HgN/A
7:00 AM79 °FPartly sunny.3 mph84%29.92 "HgN/A
Weather by CustomWeather, © 2014

See weather overviewHow to use our weather pages